Location: Miles
(41.4492°N, 81.6087°W)
Time: 02:52:56
(UTC+00:00)

S-56A Canister/Altair - Pass Details

Date: 28 September 2024
Orbit: 636 x 2487 km, 38.9° (Epoch: 11 October)

Event Time Altitude Azimuth Distance (km) Brightness Sun altitude
Rises 00:46:25 0° 275° (W) 3,064 12.3 -18.0°
Reaches altitude 10° 00:48:42 10° 266° (W) 2,257 11.0 -18.4°
Maximum altitude 00:53:24 35° 201° (SSW) 1,404 8.9 -19.3°
Enters shadow 00:57:02 21° 150° (SSE) 2,173 9.4 -20.0°
